Lid_Strength_Index
5 5 5 5 5 5 5 5 5 5 5 5 4 4 4 4 4 5 9 8 8 11 9 7 6 9 9 10 11 10 9 9 10 13 14 14 15 13 13 13 13 14 15 16 15 16 16 8 8 11 10 9 9 9
5 5 5 5 5 5 5 5 5 5 4 4 4 4 4 4 4 5 10 7 7 8 9 7 5 5 6 7 9 10 10 9 9 11 11 12 12 13 14 15 12 13 12 13 13 13 9 9 9 8 8 8 8 8
5 5 5 5 5 5 5 5 5 5 4 4 4 4 4 4 4 4 7 9 8 8 7 7 7 6 7 7 7 9 8 8 8 8 10 12 13 13 14 14 13 12 11 11 12 10 9 9 8 7 7 8 7 7
5 5 5 5 5 5 5 5 5 5 4 4 4 4 4 4 4 4 8 9 8 8 10 7 4 5 4 6 6 7 7 9 9 10 12 13 13 11 13 12 13 11 10 11 12 10 9 8 8 7 7 7 7 6
5 5 5 5 5 5 5 5 4 4 4 4 3 4 4 4 5 6 6 8 7 8 11 10 6 5 5 6 5 6 8 9 10 10 12 12 12 11 13 12 12 11 11 11 12 9 9 9 7 6 7 7 6 6
5 5 5 5 5 5 5 4 4 4 4 4 4 4 4 4 5 8 8 7 6 7 9 11 7 6 6 6 6 6 7 8 9 10 11 11 10 11 13 13 10 9 8 8 8 8 8 7 6 5 6 5 5 5
5 5 5 5 5 5 4 4 4 4 4 4 4 4 4 5 6 9 8 6 5 7 8 9 10 7 6 6 7 7 7 8 9 10 10 10 10 10 12 12 8 7 7 7 7 6 7 6 7 5 5 5 5 5
5 5 5 5 5 5 4 4 4 4 4 4 4 4 4 5 6 6 5 4 5 6 7 10 10 9 7 8 8 8 8 9 9 10 10 10 10 11 12 10 8 7 6 6 6 6 7 7 6 6 5 5 5 6
5 5 5 5 5 5 4 4 5 5 4 4 4 4 6 7 6 5 1 2 5 6 9 9 12 12 7 9 8 8 9 10 9 10 10 9 11 12 9 10 8 7 6 6 6 6 7 7 5 5 5 4 6 6
6 5 5 5 5 5 5 5 5 5 5 4 6 7 8 5 2 2 5 8 8 8 9 11 10 10 9 9 10 10 10 11 12 10 9 10 11 9 8 7 6 6 6 6 7 8 7 6 6 5 5 5 5 5
5 5 6 5 5 5 5 5 5 5 5 7 8 9 6 3 6 7 8 9 9 10 9 9 9 9 6 10 9 9 9 10 13 11 11 12 12 10 7 7 6 6 6 6 6 6 6 6 6 6 5 4 4 4
5 6 6 6 6 5 5 5 4 7 8 6 5 4 6 8 9 10 10 9 9 10 7 9 9 8 7 6 9 8 11 10 13 9 11 13 11 8 8 7 8 7 6 5 5 5 5 5 4 5 5 5 5 4
5 5 6 5 5 5 5 4 3 3 4 5 6 7 7 9 12 12 12 11 11 8 7 7 9 8 7 6 8 9 11 12 9 11 12 11 9 7 7 7 6 6 5 5 5 4 4 5 4 5 5 5 4 4
5 5 6 5 5 4 3 3 3 3 5 8 8 12 11 12 11 9 9 9 7 7 7 7 8 9 7 9 9 11 10 9 13 15 13 10 8 7 6 5 5 5 5 5 5 5 5 4 5 5 5 4 4 5
6 6 5 5 4 3 3 3 3 7 8 8 9 14 11 8 7 6 6 7 6 5 6 7 7 8 9 10 10 10 12 14 13 13 10 8 7 7 7 6 6 5 5 6 5 5 5 5 5 5 5 4 4 4
6 6 7 4 3 3 3 4 7 6 5 7 8 11 9 9 8 8 7 7 5 6 5 6 9 10 11 10 12 12 13 14 11 9 8 8 8 7 7 6 6 5 5 5 5 5 5 5 6 5 4 4 3 3
6 10 6 4 4 3 4 7 7 6 6 7 9 8 8 8 8 7 6 6 5 6 9 9 11 12 9 12 12 10 12 10 8 8 8 8 8 7 7 6 6 5 4 5 5 5 5 4 4 4 4 4 4 3
9 9 5 4 4 5 7 7 8 7 8 7 9 8 8 7 7 7 7 6 6 7 8 9 8 12 12 13 12 10 9 8 8 8 7 7 7 6 6 6 6 5 5 5 5 5 4 5 5 5 4 4 4 4
8 8 4 4 4 6 9 8 6 9 8 7 7 8 7 7 7 7 7 7 5 6 6 8 10 11 11 9 8 8 8 8 7 7 7 6 6 5 5 5 5 5 5 5 5 5 5 5 5 4 4 4 4 4
6 6 4 4 4 8 9 10 5 8 8 8 8 8 7 7 7 7 6 7 7 8 9 10 10 9 8 8 7 7 7 6 7 7 7 6 6 5 5 5 5 5 5 4 5 6 5 4 5 5 4 4 4 4
7 6 3 5 7 7 10 11 11 9 8 9 8 9 8 8 8 8 7 7 9 9 10 9 8 7 7 6 6 6 7 7 7 7 6 7 6 6 5 5 5 5 5 5 5 5 6 4 4 4 4 5 3 3
9 6 7 5 7 7 8 8 10 8 9 9 9 9 10 10 9 9 8 9 9 8 8 8 7 7 7 7 6 6 6 6 6 7 7 6 6 6 6 5 5 5 5 5 5 5 5 4 4 4 4 4 4 3
7 7 8 7 8 10 11 8 9 8 9 9 8 9 9 9 8 7 9 8 8 7 7 7 7 7 6 6 5 5 5 5 6 6 5 5 5 5 5 5 5 5 5 4 4 4 4 5 4 4 4 4 4 4
6 9 9 8 9 12 9 9 7 7 7 9 10 11 10 8 7 9 10 9 7 8 8 7 6 6 6 6 6 6 5 5 6 6 6 6 6 6 5 4 4 4 4 4 4 4 4 3 5 4 4 4 5 5
11 10 11 13 9 8 9 9 8 9 11 9 10 10 9 7 10 10 10 9 8 8 7 6 6 6 6 6 6 6 5 5 6 6 6 6 6 5 5 5 5 5 4 4 4 4 4 4 4 3 3 4 6 6
13 10 12 11 10 10 9 10 9 9 9 10 9 8 8 9 11 11 9 8 8 7 6 5 5 5 6 6 6 6 5 5 5 5 5 5 5 5 5 5 5 4 4 4 4 4 5 5 4 4 4 5 8 6
12 10 10 8 8 7 8 7 7 8 9 10 9 10 10 12 12 9 7 6 6 6 5 4 4 5 5 5 5 5 5 5 4 4 4 4 4 4 4 4 4 4 4 4 4 5 5 5 4 5 5 5 5 5
9 10 11 9 9 8 9 8 9 9 9 7 8 10 11 10 10 7 6 5 5 5 5 5 4 4 5 5 5 5 5 5 4 3 4 5 4 4 4 4 3 7 5 5 4 4 4 5 4 5 5 5 5 4
9 9 9 10 9 9 9 8 8 8 7 7 8 9 8 6 5 5 5 4 5 5 6 6 5 6 5 5 5 5 5 5 5 5 5 5 5 4 4 4 5 5 5 5 8 6 4 5 5 5 5 5 4 4
10 9 10 10 9 9 8 7 7 6 6 6 6 6 6 5 4 3 4 4 6 6 5 5 5 5 5 6 6 5 6 5 4 5 5 5 4 4 4 5 5 5 5 5 5 5 8 6 6 5 5 4 4 5
8 9 10 10 10 8 7 6 6 7 7 6 5 6 6 6 5 4 3 3 3 5 6 6 7 6 6 6 6 6 6 5 4 4 4 4 4 4 3 3 4 5 5 5 5 5 5 6 5 5 4 4 4 4
9 9 9 10 9 7 7 7 7 7 7 7 7 6 6 6 7 5 4 4 5 5 5 5 5 5 4 4 4 5 7 4 4 4 3 4 4 3 3 3 4 4 5 5 5 5 5 5 5 5 4 3 3 3
9 9 9 9 9 8 8 8 8 8 8 8 7 7 7 7 7 5 4 2 3 4 4 3 3 3 4 4 4 4 7 4 5 7 7 7 8 6 4 4 4 3 4 4 4 4 4 4 5 5 4 3 3 3